Location: Glencliff
(36.1226°N, 86.7183°W)
Time: 23:20:19
(UTC+00:00)

Cosmos 2360 Rocket - Pass Details

Date: 25 August 2019
Orbit: 834 x 845 km, 71.0° (Epoch: 21 September)

Event Time Altitude Azimuth Distance (km) Brightness Sun altitude
Rises 04:41:48 0° 345° (NNW) 3,392 6.2 -40.4°
Reaches altitude 10° 04:44:22 10° 351° (N) 2,456 5.2 -40.6°
Enters shadow 04:46:11 20° 1° (N) 1,841 4.4 -40.7°
